Dewpoint
29 24 30 30 31 32 31 33 33 32 33 34 36 37 37 37 39 39 41 41 42 45 50 52 53 54 54 52 50 50 51 51 51 51 50 49 48 47 46 45 45 45 44 41
30 32 29 29 33 32 32 32 33 33 32 36 37 38 38 37 36 37 38 39 40 41 43 46 50 52 52 50 50 49 50 50 48 47 47 47 45 43 43 42 42 42 41 38
30 31 34 30 30 32 33 33 33 32 34 35 35 37 37 38 36 35 37 37 38 40 40 42 45 48 48 46 48 49 48 47 46 46 45 44 43 41 40 38 38 38 38 37
35 35 30 35 37 32 32 34 35 35 35 36 35 37 39 39 39 38 37 36 36 38 38 40 43 45 46 47 46 46 46 45 44 42 40 39 38 36 36 35 34 34 35 34
34 34 37 37 38 38 36 34 37 35 35 35 35 37 36 41 38 37 40 42 41 41 43 43 44 45 45 44 43 42 41 40 39 39 36 36 35 34 33 34 33 33 33 33
32 32 31 33 36 40 40 35 36 35 35 34 34 32 34 40 44 44 44 44 44 44 45 45 45 44 42 40 41 39 38 37 37 37 35 35 33 33 33 33 33 34 33 33
32 32 34 36 35 38 34 33 34 35 35 35 35 36 39 44 44 44 44 44 44 43 44 44 44 43 42 40 39 36 35 36 35 35 34 34 34 33 33 33 33 32 32 32
32 32 31 36 35 33 35 35 37 37 39 39 40 41 43 43 43 43 43 43 43 43 43 44 43 42 41 37 35 35 35 34 34 34 34 33 33 33 33 33 32 32 31 31
35 34 39 38 34 37 36 33 34 39 40 39 40 41 42 42 42 43 43 42 43 43 42 40 40 41 39 37 35 34 34 34 34 34 33 33 33 32 32 32 32 31 30 29
38 39 40 41 39 36 36 34 35 40 39 39 39 40 38 38 41 42 42 41 41 41 41 39 37 38 38 37 36 35 34 34 34 33 33 33 33 33 32 32 31 31 31 30
36 37 38 40 39 36 35 37 39 39 39 39 39 39 40 40 40 40 41 41 41 40 40 39 37 37 37 36 35 33 33 33 33 34 33 32 30 28 32 32 29 32 32 31
34 37 36 37 37 36 36 36 39 37 38 40 39 39 39 39 39 38 39 41 41 40 40 39 37 37 36 36 35 34 33 33 33 33 32 32 30 30 32 32 33 33 32 32
38 39 36 37 36 33 34 37 38 37 37 39 40 39 39 39 39 38 37 38 39 39 39 38 38 36 36 36 35 34 34 33 33 32 32 31 30 29 27 30 33 33 33 33
40 35 33 32 29 30 32 33 35 30 31 34 35 36 36 35 34 35 36 36 35 35 35 35 34 34 34 34 33 33 34 33 33 33 33 32 30 28 27 26 22 23 31 32
38 35 31 29 28 27 28 28 26 25 27 28 29 29 28 27 26 27 33 35 35 35 36 36 35 33 33 32 33 32 32 34 33 32 31 32 32 29 27 24 23 21 26 27
33 32 30 28 25 24 24 23 24 25 26 26 26 26 29 33 33 33 34 36 34 34 34 34 34 34 34 34 34 33 33 29 31 33 32 32 31 28 27 25 24 24 23 22
27 27 26 25 26 25 23 24 24 26 28 28 29 33 34 34 33 32 33 32 32 33 33 34 33 33 34 34 34 33 33 33 33 33 32 32 30 29 27 25 23 23 22 22
29 30 28 28 25 24 26 28 30 30 31 34 32 31 30 30 31 32 31 32 32 32 32 33 33 33 33 33 34 33 33 32 32 32 32 31 30 29 27 26 24 23 22 20
32 33 33 34 34 33 32 32 33 33 31 30 30 28 28 31 32 32 32 32 32 31 30 32 31 32 32 32 33 33 32 32 31 31 31 30 30 28 26 25 23 21 23 20
33 33 33 34 34 33 32 31 31 32 30 29 29 30 31 32 32 32 32 31 31 32 31 31 32 32 32 32 32 32 30 31 30 30 30 29 29 28 26 26 26 21 18 18
31 30 29 31 31 32 33 32 32 31 31 30 30 31 31 32 32 32 31 30 30 32 32 32 32 31 32 32 32 31 30 31 30 29 28 27 27 28 28 27 27 26 25 19
31 30 29 29 30 30 32 32 31 31 28 26 29 31 31 31 31 31 31 31 31 30 31 31 31 30 31 30 30 30 30 29 29 29 29 30 29 29 28 28 28 27 26 25
30 30 30 29 29 29 31 32 32 32 32 32 31 31 31 32 31 30 28 31 31 30 31 30 30 30 29 30 29 27 29 29 29 29 29 30 29 29 29 28 29 28 27 27
30 30 30 31 31 31 30 31 32 31 28 31 29 31 31 31 31 30 31 30 30 28 29 29 30 29 28 29 27 29 29 29 29 30 29 29 30 29 29 28 28 28 28 27
30 30 30 30 30 30 32 32 32 31 31 31 31 31 31 31 28 30 31 30 29 29 29 29 29 29 30 31 30 29 29 29 30 30 29 29 29 28 28 28 28 28 28 27
29 29 29 30 31 32 32 32 31 31 31 30 31 32 32 31 30 30 29 29 28 24 29 29 29 29 30 30 29 29 29 28 28 29 29 29 29 29 28 28 28 28 27 27
29 30 29 31 32 32 32 32 31 30 31 31 31 32 32 31 30 28 28 28 28 29 29 29 26 25 27 28 26 28 28 28 28 28 29 29 29 29 29 28 28 28 28 27
Lifted_Index
4 4 3 3 2 2 2 2 2 3 3 2 1 1 1 2 2 1 1 1 1 0 -1 -1 -1 -1 -1 -1 -1 -0 0 0 -0 -1 -1 -1 -0 0 0 0 1 1 1 1
3 3 3 3 3 3 3 3 3 3 3 2 1 1 1 2 2 1 1 1 1 0 -0 -0 -1 -1 -1 -1 -1 -0 0 0 0 -0 -1 -0 0 0 1 1 1 1 2 2
3 3 3 3 4 3 3 3 3 3 3 2 1 1 1 1 1 1 1 1 1 1 1 0 0 -0 -1 -1 -0 -0 0 0 0 0 0 1 1 2 2 2 2 3 4 4
2 2 2 3 4 4 4 3 3 3 2 2 1 1 1 1 1 1 1 1 1 1 1 1 0 0 0 -0 0 0 0 1 1 2 3 3 4 4 5 5 4 5 6 6
1 1 2 3 4 3 3 3 3 2 2 1 1 1 1 1 1 0 0 0 -0 0 0 0 0 0 0 0 0 1 1 2 3 4 5 5 6 6 6 6 6 7 7 8
0 1 1 3 3 2 2 2 2 2 2 1 1 1 1 1 1 0 -0 -0 -1 -1 -1 -1 -0 0 0 1 2 2 3 4 4 5 5 6 6 6 7 7 8 8 9 9
1 1 1 2 2 1 1 2 2 1 2 2 1 1 0 0 0 0 0 0 -0 -1 -1 -1 -0 1 1 2 3 4 4 4 4 5 5 6 7 7 8 8 9 9 9 9
1 1 1 2 2 2 2 2 2 2 2 2 1 0 -0 -0 0 1 1 1 0 -0 -1 0 1 2 2 3 4 4 4 4 5 6 6 7 8 8 9 9 9 9 8 8
2 2 2 2 3 3 2 2 3 3 2 2 2 1 0 1 1 2 2 2 1 1 1 2 3 3 4 4 5 5 5 6 6 7 8 8 8 9 9 9 8 8 7 6
3 3 3 3 3 3 3 3 3 3 3 3 2 2 2 2 3 3 3 2 2 2 3 4 5 5 5 6 6 6 7 7 8 8 9 9 9 9 8 8 7 7 6 6
3 3 2 2 3 3 3 3 3 3 3 3 3 3 3 3 4 4 4 4 4 4 5 6 6 6 6 7 7 7 8 8 9 9 9 9 8 8 7 7 7 7 7 7
3 2 2 2 2 2 3 3 3 3 3 3 3 3 4 4 4 4 5 5 5 6 6 6 7 6 6 7 7 7 7 8 8 8 8 8 7 7 7 7 7 7 7 8
2 2 2 2 2 2 2 3 3 3 3 3 4 4 4 4 5 5 6 6 6 6 6 6 6 6 6 6 6 6 6 7 7 7 7 7 6 6 7 7 7 7 7 8
1 1 1 2 2 2 2 2 2 3 3 3 4 4 5 5 6 6 6 6 6 6 6 6 6 5 5 6 6 6 6 7 7 7 7 6 7 7 7 7 6 7 7 8
1 1 1 1 2 2 2 2 2 3 3 4 4 5 5 5 6 6 6 6 6 6 6 6 6 6 6 6 6 6 7 7 7 7 6 7 7 7 7 7 7 7 8 8
2 1 1 1 1 2 2 2 2 3 4 4 5 5 6 6 6 6 7 7 7 7 7 7 7 7 6 6 6 7 7 7 6 6 7 7 7 7 7 8 8 8 8 8
1 1 1 1 1 1 2 2 3 4 4 5 6 6 7 7 7 8 8 8 8 8 8 8 8 7 7 6 6 6 6 6 6 7 7 7 7 7 8 8 8 8 9 9
1 1 1 1 1 2 3 4 4 5 6 6 7 7 8 8 8 9 9 9 9 9 9 8 8 7 7 6 6 6 6 6 7 7 7 7 7 8 8 9 9 9 9 10
2 2 2 2 3 3 4 5 6 6 7 7 7 8 8 8 9 9 9 9 9 8 8 7 7 6 6 6 6 7 7 7 7 7 7 7 7 8 9 9 9 9 10 10
3 4 4 4 5 5 6 6 7 7 7 7 7 8 8 8 8 9 9 9 8 8 8 7 6 6 6 6 6 7 7 7 7 7 7 7 8 8 9 9 9 10 10 10
5 5 6 6 6 6 7 7 7 7 7 7 7 8 8 8 8 9 8 8 8 8 7 7 6 6 6 6 6 7 7 7 7 7 7 8 8 8 9 9 9 10 11 11
6 6 7 7 7 7 6 6 6 6 7 7 8 8 8 8 8 8 8 8 8 8 7 6 6 6 6 6 6 7 7 7 7 7 8 8 8 8 9 9 10 10 11 12
7 7 7 7 7 7 7 6 6 6 7 7 8 8 7 7 7 7 7 7 7 7 7 7 7 7 7 7 7 7 8 7 7 8 8 8 9 9 9 9 10 11 11 12
8 8 8 7 7 7 7 7 6 6 7 7 7 7 6 6 6 6 6 6 6 7 7 8 8 8 8 9 9 9 8 8 8 9 9 9 9 10 10 10 10 11 12 12
7 7 7 7 7 7 7 7 6 6 6 6 6 6 6 6 6 6 6 6 6 7 7 8 9 10 10 10 10 10 9 9 10 10 10 10 10 10 10 11 11 11 11 12
7 7 7 8 7 7 7 6 6 6 5 5 5 5 6 6 6 6 7 7 7 7 8 9 10 10 11 11 11 10 10 10 11 11 10 10 10 10 11 11 11 11 11 11
7 8 8 8 8 7 7 6 6 6 5 5 5 5 6 6 6 7 7 7 7 7 8 9 10 10 11 11 10 10 11 11 11 11 11 10 11 11 11 11 11 11 11 11